GEFSCGP_prec_meanprecacc_222.txt.gz
Total_Precipitation_Accumulation
0.00 0.00 0.00 0.01 0.03 0.07 0.08 0.09 0.13 0.15 0.17 0.24 0.36 0.57 0.79 0.90 1.08 1.22 1.19 1.33 1.73 2.13 2.43 2.71 2.85 3.08 3.38 3.68 3.93 4.19 4.54 4.63 4.36 4.27 4.20 4.06 3.74 3.59 3.28 2.90 2.56 2.45 2.45 2.57
0.00 0.01 0.01 0.01 0.02 0.05 0.05 0.07 0.13 0.15 0.19 0.26 0.31 0.52 0.74 0.77 0.98 1.12 1.22 1.39 1.57 1.78 2.26 2.53 2.55 2.78 3.01 3.51 3.99 4.30 4.27 4.14 3.86 3.93 4.21 4.43 4.38 3.90 3.31 2.95 2.78 2.43 2.33 2.39
0.01 0.02 0.01 0.01 0.01 0.02 0.07 0.10 0.14 0.16 0.20 0.31 0.40 0.80 0.93 0.85 0.94 1.04 1.14 1.31 1.45 1.62 1.82 2.14 2.16 2.25 2.47 2.94 3.43 3.56 3.39 3.31 3.15 3.20 3.51 3.71 3.92 3.65 3.26 2.96 2.69 2.41 2.29 2.22
0.01 0.01 0.01 0.02 0.02 0.02 0.06 0.06 0.07 0.12 0.24 0.43 0.48 0.94 1.17 1.16 1.22 1.09 1.13 1.19 1.45 1.61 1.65 1.82 1.87 1.92 1.97 2.09 2.32 2.48 2.65 2.71 2.71 2.74 2.91 3.09 3.23 3.15 2.98 2.88 2.62 2.36 2.10 2.00
0.02 0.02 0.02 0.03 0.04 0.03 0.05 0.05 0.06 0.12 0.22 0.43 0.47 0.68 1.12 1.38 1.40 1.16 1.12 1.13 1.28 1.31 1.39 1.53 1.60 1.60 1.66 1.80 1.99 2.19 2.46 2.59 2.65 2.61 2.68 2.86 3.11 3.05 2.80 2.58 2.49 2.31 2.10 1.91
0.03 0.04 0.04 0.04 0.04 0.04 0.05 0.06 0.12 0.19 0.30 0.69 0.60 0.68 1.08 1.30 1.14 1.10 1.02 0.96 1.04 1.04 1.17 1.37 1.47 1.52 1.54 1.61 1.83 2.03 2.21 2.20 2.26 2.33 2.36 2.37 2.46 2.51 2.37 2.22 2.14 1.98 1.83 1.71
0.12 0.10 0.08 0.05 0.05 0.06 0.08 0.14 0.48 0.89 1.08 1.04 0.64 0.73 1.18 1.08 0.90 0.90 0.92 0.95 1.02 1.01 1.00 1.18 1.34 1.35 1.45 1.55 1.65 1.75 1.85 1.90 1.89 1.94 1.89 1.85 1.92 2.04 2.01 1.91 1.88 1.80 1.61 1.46
0.21 0.24 0.16 0.09 0.08 0.09 0.13 0.22 0.62 0.90 0.91 0.90 0.76 1.14 1.35 0.94 0.84 0.79 0.73 0.75 0.78 0.75 0.73 0.82 0.96 1.06 1.16 1.30 1.38 1.44 1.51 1.64 1.75 1.80 1.83 1.75 1.74 1.80 1.85 1.86 1.74 1.67 1.46 1.34
0.14 0.16 0.11 0.08 0.07 0.11 0.21 0.28 0.31 0.51 0.61 0.95 1.15 1.36 1.20 0.91 0.85 0.78 0.79 0.76 0.75 0.70 0.66 0.68 0.75 0.84 0.84 0.95 1.06 1.13 1.22 1.36 1.50 1.57 1.68 1.59 1.54 1.64 1.78 1.82 1.77 1.70 1.65 1.56
0.07 0.09 0.11 0.08 0.10 0.15 0.17 0.21 0.28 0.43 0.65 0.96 1.16 1.45 1.62 1.41 1.19 1.01 1.02 0.91 0.79 0.68 0.60 0.62 0.62 0.63 0.60 0.71 0.91 0.98 1.17 1.29 1.36 1.36 1.29 1.19 1.31 1.50 1.64 1.64 1.58 1.69 1.74 1.74
0.07 0.07 0.10 0.13 0.14 0.16 0.19 0.22 0.29 0.37 0.45 0.74 1.15 1.31 1.11 1.19 1.16 1.14 1.00 0.88 0.79 0.69 0.57 0.58 0.64 0.66 0.63 0.67 0.83 0.89 0.99 1.16 1.21 1.18 1.10 1.06 1.11 1.24 1.33 1.36 1.40 1.54 1.60 1.65
0.08 0.09 0.15 0.20 0.17 0.15 0.18 0.21 0.31 0.48 0.51 0.61 0.91 1.11 0.78 0.86 0.86 0.78 0.73 0.64 0.56 0.57 0.50 0.51 0.61 0.72 0.82 0.90 0.89 0.81 0.82 0.87 1.00 1.04 1.01 1.02 1.03 1.02 1.01 1.04 1.15 1.26 1.34 1.36
0.11 0.15 0.28 0.49 0.49 0.30 0.24 0.20 0.24 0.32 0.41 0.48 0.75 1.02 0.82 0.76 0.80 0.78 0.73 0.68 0.58 0.53 0.53 0.58 0.66 0.71 0.73 0.86 0.95 0.83 0.81 0.85 0.95 0.96 0.98 1.03 1.02 0.97 0.91 0.94 1.01 1.03 1.02 1.04
0.10 0.12 0.24 0.48 0.44 0.34 0.30 0.26 0.28 0.33 0.43 0.45 0.52 0.78 0.91 0.90 0.85 0.80 0.74 0.66 0.62 0.51 0.49 0.55 0.65 0.77 0.75 0.73 0.84 0.79 0.77 0.82 0.91 1.03 1.17 1.16 1.08 1.02 0.97 0.93 0.96 0.98 0.92 0.92
0.10 0.10 0.12 0.17 0.23 0.30 0.32 0.26 0.26 0.27 0.31 0.46 0.43 0.57 0.81 0.88 0.80 0.81 0.76 0.58 0.51 0.54 0.51 0.49 0.57 0.73 0.78 0.78 0.79 0.75 0.79 0.80 0.84 1.00 1.15 1.19 1.19 1.16 1.13 1.03 0.94 0.94 0.95 0.89
0.18 0.17 0.19 0.19 0.26 0.31 0.31 0.27 0.22 0.20 0.20 0.27 0.33 0.51 0.58 0.54 0.62 0.68 0.62 0.57 0.54 0.60 0.58 0.54 0.50 0.54 0.64 0.72 0.76 0.74 0.74 0.75 0.81 0.89 0.99 1.13 1.24 1.27 1.22 1.06 0.99 1.03 1.03 1.04
0.31 0.32 0.29 0.30 0.30 0.35 0.40 0.32 0.26 0.23 0.20 0.26 0.43 0.61 0.55 0.51 0.63 0.60 0.51 0.50 0.58 0.56 0.48 0.45 0.44 0.46 0.50 0.55 0.63 0.77 0.75 0.72 0.78 0.89 0.99 1.12 1.19 1.19 1.14 1.03 1.04 1.07 1.05 1.06
0.30 0.38 0.38 0.39 0.49 0.62 0.42 0.25 0.25 0.27 0.24 0.22 0.33 0.46 0.50 0.47 0.52 0.54 0.48 0.45 0.45 0.42 0.38 0.33 0.33 0.38 0.42 0.43 0.47 0.57 0.68 0.74 0.77 0.86 0.97 1.06 1.12 1.19 1.24 1.20 1.12 1.16 1.17 1.12
0.28 0.41 0.46 0.52 0.65 0.54 0.36 0.31 0.34 0.38 0.40 0.33 0.36 0.41 0.48 0.49 0.50 0.58 0.49 0.45 0.41 0.36 0.33 0.35 0.36 0.35 0.43 0.51 0.53 0.60 0.73 0.82 0.87 0.89 0.98 1.02 1.11 1.27 1.34 1.26 1.22 1.25 1.22 1.14
0.34 0.41 0.55 0.60 0.78 0.72 0.54 0.39 0.36 0.46 0.80 0.57 0.46 0.44 0.50 0.55 0.64 0.73 0.57 0.52 0.45 0.40 0.35 0.33 0.34 0.36 0.43 0.57 0.67 0.76 0.89 1.03 1.04 0.99 1.01 1.09 1.15 1.28 1.41 1.45 1.44 1.38 1.35 1.27
0.72 0.66 0.61 0.70 0.85 0.73 0.53 0.42 0.49 0.86 1.04 0.69 0.61 0.57 0.60 0.66 0.64 0.61 0.57 0.49 0.44 0.41 0.40 0.36 0.38 0.43 0.50 0.57 0.75 0.96 1.03 1.08 1.10 1.08 1.08 1.18 1.27 1.43 1.60 1.76 1.72 1.66 1.60 1.57
0.93 0.96 0.91 0.94 1.09 1.08 0.66 0.56 0.82 1.01 0.82 0.75 0.74 0.72 0.69 0.61 0.55 0.52 0.55 0.51 0.43 0.41 0.43 0.47 0.54 0.60 0.59 0.60 0.74 0.93 1.02 1.05 1.14 1.17 1.24 1.30 1.42 1.47 1.61 1.96 1.96 1.97 1.96 1.83
1.00 1.13 1.22 1.20 1.21 0.99 0.89 0.93 0.96 0.99 0.87 0.82 0.69 0.60 0.58 0.58 0.56 0.59 0.67 0.64 0.52 0.43 0.47 0.52 0.63 0.72 0.78 0.85 0.94 1.09 1.13 1.19 1.27 1.38 1.49 1.54 1.59 1.71 1.80 1.93 1.98 2.02 2.01 1.89
0.96 0.91 1.21 1.36 1.26 1.14 1.01 0.93 0.98 1.12 0.97 0.78 0.65 0.59 0.58 0.60 0.54 0.50 0.54 0.58 0.54 0.50 0.54 0.59 0.62 0.80 0.95 1.04 1.12 1.20 1.27 1.39 1.52 1.66 1.76 1.83 1.84 1.83 1.88 2.01 1.99 1.98 1.99 1.90
0.85 0.88 1.21 1.44 1.40 1.39 1.20 0.91 0.87 0.91 0.82 0.68 0.68 0.66 0.65 0.68 0.61 0.51 0.47 0.49 0.54 0.61 0.66 0.70 0.76 0.87 0.93 1.05 1.20 1.33 1.50 1.66 1.74 1.76 1.78 1.79 1.86 1.99 2.06 2.03 2.00 2.03 2.07 2.03
0.95 0.98 1.25 1.51 1.35 1.32 1.25 0.99 0.87 0.76 0.67 0.64 0.77 0.81 0.70 0.70 0.70 0.63 0.55 0.56 0.59 0.64 0.75 0.83 0.91 1.03 1.10 1.23 1.38 1.50 1.66 1.88 2.05 2.00 1.92 1.95 1.97 2.05 2.09 2.06 1.98 2.00 1.94 1.86

GEFSCGP_prec_meanprecacc_228.txt.gz
Total_Precipitation_Accumulation
0.00 0.00 0.01 0.01 0.03 0.08 0.09 0.10 0.14 0.15 0.17 0.24 0.36 0.57 0.79 0.90 1.08 1.22 1.19 1.33 1.73 2.13 2.43 2.71 2.85 3.08 3.39 3.68 3.94 4.21 4.58 4.67 4.40 4.32 4.26 4.13 3.80 3.64 3.32 2.93 2.59 2.47 2.47 2.60
0.00 0.01 0.01 0.01 0.02 0.05 0.05 0.08 0.14 0.15 0.19 0.26 0.31 0.53 0.74 0.77 0.98 1.12 1.22 1.39 1.57 1.78 2.26 2.53 2.55 2.78 3.01 3.52 4.00 4.32 4.30 4.17 3.90 3.99 4.26 4.48 4.43 3.94 3.35 2.98 2.83 2.46 2.36 2.44
0.01 0.02 0.01 0.01 0.01 0.02 0.07 0.10 0.14 0.16 0.20 0.31 0.40 0.82 0.95 0.85 0.94 1.04 1.14 1.31 1.45 1.62 1.82 2.14 2.16 2.25 2.47 2.95 3.44 3.57 3.41 3.33 3.19 3.25 3.56 3.77 3.98 3.71 3.34 3.01 2.75 2.46 2.34 2.27
0.01 0.01 0.01 0.02 0.02 0.02 0.06 0.06 0.07 0.12 0.24 0.43 0.48 0.94 1.18 1.17 1.22 1.09 1.13 1.19 1.45 1.61 1.65 1.82 1.87 1.92 1.97 2.09 2.32 2.49 2.66 2.74 2.74 2.78 2.96 3.16 3.32 3.23 3.06 2.94 2.67 2.40 2.15 2.06
0.02 0.02 0.02 0.03 0.04 0.03 0.05 0.05 0.06 0.12 0.22 0.43 0.47 0.68 1.14 1.40 1.40 1.17 1.12 1.13 1.28 1.31 1.39 1.53 1.60 1.61 1.66 1.80 2.00 2.19 2.47 2.61 2.68 2.64 2.73 2.94 3.20 3.15 2.87 2.64 2.56 2.37 2.14 1.93
0.03 0.04 0.04 0.04 0.04 0.04 0.05 0.06 0.12 0.19 0.30 0.69 0.60 0.68 1.08 1.30 1.14 1.10 1.03 0.96 1.04 1.04 1.17 1.37 1.47 1.52 1.55 1.62 1.84 2.03 2.22 2.22 2.28 2.36 2.39 2.42 2.52 2.59 2.44 2.29 2.23 2.07 1.91 1.75
0.12 0.10 0.08 0.05 0.05 0.06 0.08 0.14 0.49 0.89 1.08 1.04 0.64 0.73 1.18 1.08 0.90 0.90 0.92 0.95 1.02 1.01 1.00 1.18 1.34 1.35 1.46 1.55 1.65 1.76 1.86 1.92 1.91 1.96 1.92 1.89 1.96 2.10 2.06 1.96 1.95 1.89 1.68 1.51
0.21 0.24 0.16 0.09 0.08 0.09 0.13 0.22 0.64 0.91 0.92 0.91 0.76 1.14 1.35 0.94 0.84 0.79 0.73 0.75 0.78 0.75 0.73 0.82 0.96 1.06 1.16 1.30 1.38 1.45 1.52 1.66 1.77 1.82 1.87 1.82 1.78 1.85 1.90 1.93 1.81 1.74 1.51 1.38
0.14 0.16 0.11 0.08 0.07 0.11 0.21 0.28 0.31 0.51 0.62 0.96 1.15 1.36 1.20 0.91 0.85 0.78 0.80 0.77 0.75 0.70 0.66 0.68 0.75 0.84 0.84 0.95 1.06 1.13 1.23 1.38 1.53 1.59 1.73 1.72 1.60 1.68 1.81 1.86 1.81 1.74 1.70 1.59
0.07 0.09 0.11 0.08 0.10 0.15 0.17 0.21 0.28 0.43 0.66 0.97 1.17 1.45 1.62 1.41 1.19 1.01 1.04 0.92 0.79 0.68 0.60 0.62 0.62 0.63 0.61 0.71 0.91 0.99 1.18 1.32 1.39 1.39 1.35 1.30 1.36 1.52 1.66 1.67 1.61 1.73 1.79 1.79
0.07 0.07 0.10 0.13 0.14 0.16 0.19 0.22 0.29 0.37 0.45 0.74 1.16 1.32 1.11 1.19 1.16 1.14 1.00 0.89 0.80 0.69 0.57 0.58 0.64 0.66 0.63 0.67 0.83 0.89 1.00 1.19 1.25 1.22 1.13 1.10 1.14 1.26 1.35 1.38 1.42 1.58 1.65 1.71
0.08 0.09 0.15 0.20 0.17 0.15 0.18 0.21 0.31 0.48 0.51 0.61 0.92 1.13 0.79 0.87 0.87 0.78 0.73 0.64 0.57 0.57 0.50 0.51 0.61 0.72 0.82 0.90 0.89 0.83 0.84 0.90 1.04 1.07 1.04 1.04 1.06 1.04 1.04 1.07 1.17 1.28 1.37 1.42
0.11 0.15 0.28 0.49 0.49 0.30 0.24 0.20 0.24 0.32 0.41 0.48 0.75 1.04 0.86 0.83 0.86 0.80 0.76 0.69 0.58 0.53 0.53 0.58 0.67 0.71 0.73 0.86 0.97 0.85 0.85 0.90 0.99 1.00 1.03 1.06 1.05 0.99 0.93 0.96 1.04 1.07 1.06 1.10
0.10 0.12 0.24 0.48 0.44 0.34 0.30 0.27 0.28 0.33 0.43 0.46 0.52 0.79 0.92 0.92 0.87 0.81 0.75 0.67 0.63 0.55 0.50 0.55 0.65 0.79 0.77 0.75 0.86 0.82 0.82 0.87 0.95 1.07 1.21 1.18 1.10 1.04 0.99 0.96 1.01 1.03 0.98 1.03
0.10 0.10 0.12 0.17 0.23 0.30 0.32 0.27 0.26 0.27 0.31 0.46 0.44 0.57 0.82 0.90 0.81 0.81 0.77 0.59 0.54 0.59 0.53 0.51 0.59 0.76 0.80 0.80 0.81 0.78 0.82 0.85 0.91 1.07 1.18 1.21 1.20 1.17 1.14 1.08 1.06 1.04 1.07 1.07
0.18 0.17 0.19 0.19 0.26 0.31 0.31 0.27 0.22 0.20 0.20 0.27 0.34 0.53 0.61 0.56 0.63 0.68 0.63 0.58 0.56 0.63 0.60 0.55 0.52 0.56 0.66 0.74 0.79 0.81 0.80 0.80 0.85 0.91 1.01 1.14 1.25 1.28 1.23 1.09 1.04 1.11 1.14 1.12
0.31 0.32 0.29 0.30 0.30 0.36 0.40 0.32 0.26 0.23 0.20 0.26 0.44 0.65 0.59 0.53 0.63 0.60 0.52 0.51 0.59 0.58 0.50 0.47 0.46 0.48 0.52 0.56 0.64 0.80 0.79 0.76 0.81 0.91 1.01 1.13 1.21 1.20 1.16 1.04 1.06 1.09 1.08 1.11
0.30 0.38 0.38 0.39 0.50 0.63 0.42 0.25 0.25 0.27 0.24 0.22 0.34 0.47 0.52 0.48 0.52 0.54 0.49 0.46 0.46 0.44 0.43 0.39 0.38 0.40 0.44 0.45 0.48 0.58 0.69 0.75 0.79 0.88 0.99 1.07 1.13 1.21 1.25 1.21 1.15 1.19 1.20 1.16
0.29 0.42 0.46 0.52 0.66 0.55 0.36 0.31 0.34 0.38 0.40 0.33 0.36 0.42 0.52 0.53 0.50 0.58 0.49 0.46 0.43 0.39 0.39 0.43 0.41 0.37 0.44 0.52 0.54 0.62 0.75 0.84 0.89 0.92 1.01 1.04 1.12 1.28 1.35 1.28 1.25 1.29 1.26 1.18
0.34 0.42 0.56 0.61 0.79 0.74 0.56 0.40 0.36 0.46 0.81 0.57 0.46 0.45 0.53 0.57 0.66 0.75 0.58 0.53 0.46 0.43 0.42 0.40 0.38 0.37 0.44 0.58 0.68 0.78 0.92 1.06 1.08 1.02 1.04 1.11 1.17 1.29 1.42 1.46 1.47 1.42 1.39 1.32
0.72 0.67 0.61 0.71 0.86 0.74 0.54 0.43 0.50 0.86 1.07 0.70 0.61 0.57 0.60 0.67 0.67 0.66 0.60 0.51 0.47 0.46 0.46 0.44 0.41 0.43 0.51 0.58 0.77 1.00 1.08 1.13 1.14 1.12 1.11 1.20 1.29 1.45 1.61 1.78 1.74 1.69 1.63 1.61
0.93 0.96 0.91 0.95 1.11 1.09 0.67 0.57 0.84 1.04 0.83 0.76 0.75 0.72 0.69 0.62 0.56 0.54 0.58 0.53 0.48 0.48 0.50 0.52 0.57 0.61 0.61 0.63 0.78 0.97 1.06 1.10 1.21 1.22 1.28 1.32 1.44 1.48 1.63 1.98 1.99 1.99 1.99 1.86
1.01 1.13 1.22 1.21 1.22 1.00 0.89 0.94 0.97 1.01 0.89 0.83 0.69 0.61 0.59 0.59 0.57 0.60 0.68 0.66 0.55 0.50 0.54 0.57 0.67 0.76 0.81 0.88 0.97 1.12 1.16 1.22 1.30 1.40 1.51 1.56 1.61 1.73 1.82 1.96 2.01 2.05 2.03 1.93
0.99 0.92 1.22 1.37 1.27 1.14 1.02 0.94 0.99 1.13 0.99 0.79 0.65 0.61 0.60 0.60 0.54 0.51 0.55 0.60 0.58 0.55 0.59 0.65 0.68 0.89 1.04 1.09 1.15 1.22 1.29 1.40 1.54 1.68 1.79 1.85 1.86 1.85 1.90 2.04 2.03 2.01 2.02 1.94
0.89 0.92 1.24 1.47 1.41 1.39 1.21 0.93 0.87 0.91 0.82 0.68 0.68 0.67 0.66 0.68 0.62 0.52 0.49 0.51 0.56 0.64 0.70 0.76 0.83 0.95 1.05 1.17 1.28 1.37 1.52 1.68 1.76 1.78 1.80 1.81 1.87 2.01 2.09 2.06 2.02 2.05 2.10 2.06
0.99 1.01 1.28 1.56 1.37 1.33 1.25 0.99 0.88 0.77 0.68 0.64 0.77 0.81 0.71 0.71 0.71 0.64 0.56 0.57 0.60 0.66 0.78 0.87 0.95 1.06 1.14 1.29 1.44 1.54 1.70 1.91 2.07 2.02 1.95 1.96 1.98 2.07 2.11 2.08 2.00 2.02 1.96 1.89

GEFSCGP_prec_meanprecacc_234.txt.gz
Total_Precipitation_Accumulation
0.00 0.00 0.01 0.01 0.04 0.08 0.09 0.12 0.15 0.16 0.18 0.25 0.36 0.58 0.79 0.90 1.09 1.22 1.19 1.33 1.73 2.13 2.43 2.71 2.86 3.08 3.40 3.69 3.95 4.22 4.59 4.68 4.42 4.33 4.27 4.14 3.82 3.67 3.34 2.96 2.61 2.49 2.48 2.62
0.00 0.01 0.01 0.01 0.02 0.05 0.06 0.08 0.14 0.16 0.20 0.28 0.32 0.54 0.75 0.78 0.98 1.12 1.22 1.40 1.57 1.78 2.26 2.53 2.55 2.79 3.02 3.52 4.00 4.32 4.31 4.18 3.91 4.00 4.28 4.49 4.45 3.97 3.38 3.02 2.87 2.50 2.39 2.46
0.01 0.02 0.01 0.01 0.01 0.02 0.07 0.10 0.15 0.17 0.20 0.32 0.41 0.83 0.96 0.86 0.95 1.05 1.14 1.31 1.45 1.62 1.82 2.14 2.17 2.26 2.47 2.95 3.45 3.57 3.42 3.34 3.19 3.25 3.57 3.79 4.01 3.75 3.38 3.06 2.79 2.50 2.38 2.31
0.01 0.02 0.01 0.02 0.02 0.02 0.06 0.06 0.07 0.13 0.25 0.44 0.49 0.95 1.19 1.19 1.24 1.10 1.13 1.19 1.45 1.61 1.66 1.82 1.88 1.93 1.97 2.09 2.33 2.50 2.67 2.74 2.74 2.79 2.97 3.18 3.33 3.26 3.09 2.98 2.71 2.45 2.20 2.10
0.02 0.02 0.02 0.03 0.04 0.03 0.05 0.05 0.06 0.12 0.22 0.43 0.48 0.68 1.15 1.42 1.43 1.18 1.14 1.15 1.29 1.31 1.39 1.53 1.61 1.61 1.66 1.80 2.00 2.20 2.48 2.62 2.68 2.65 2.75 2.95 3.21 3.17 2.90 2.68 2.60 2.41 2.20 1.98
0.03 0.04 0.05 0.04 0.04 0.04 0.05 0.07 0.13 0.19 0.30 0.70 0.61 0.68 1.09 1.31 1.16 1.12 1.04 0.98 1.05 1.04 1.18 1.38 1.48 1.53 1.55 1.62 1.84 2.04 2.23 2.23 2.30 2.38 2.42 2.44 2.54 2.62 2.48 2.35 2.28 2.12 1.95 1.80
0.12 0.11 0.09 0.05 0.05 0.06 0.08 0.14 0.49 0.89 1.08 1.04 0.64 0.73 1.19 1.09 0.92 0.93 0.94 0.96 1.03 1.02 1.01 1.18 1.35 1.35 1.47 1.56 1.66 1.78 1.88 1.94 1.94 2.01 1.97 1.93 2.00 2.14 2.11 2.02 2.01 1.93 1.73 1.57
0.21 0.24 0.16 0.09 0.08 0.09 0.13 0.22 0.64 0.91 0.92 0.91 0.76 1.14 1.35 0.95 0.86 0.83 0.75 0.76 0.79 0.76 0.73 0.83 0.99 1.08 1.20 1.34 1.42 1.51 1.55 1.70 1.82 1.89 1.92 1.88 1.84 1.90 1.96 2.01 1.88 1.79 1.55 1.41
0.14 0.16 0.11 0.08 0.07 0.11 0.21 0.28 0.31 0.51 0.62 0.96 1.15 1.36 1.20 0.92 0.87 0.80 0.82 0.79 0.77 0.72 0.68 0.69 0.77 0.86 0.89 1.00 1.12 1.19 1.29 1.47 1.63 1.65 1.79 1.77 1.65 1.72 1.87 1.94 1.87 1.79 1.74 1.62
0.07 0.09 0.11 0.08 0.10 0.15 0.17 0.21 0.28 0.43 0.66 0.97 1.17 1.46 1.62 1.41 1.20 1.02 1.05 0.94 0.83 0.70 0.64 0.64 0.63 0.64 0.63 0.74 0.98 1.09 1.25 1.41 1.44 1.43 1.41 1.35 1.40 1.56 1.70 1.69 1.64 1.75 1.82 1.83
0.07 0.07 0.10 0.13 0.14 0.16 0.19 0.22 0.29 0.37 0.45 0.75 1.16 1.33 1.12 1.19 1.16 1.15 1.01 0.93 0.88 0.76 0.62 0.60 0.66 0.67 0.65 0.70 0.92 0.96 1.04 1.23 1.28 1.25 1.16 1.14 1.19 1.29 1.37 1.41 1.43 1.59 1.66 1.74
0.08 0.09 0.15 0.20 0.17 0.15 0.18 0.21 0.31 0.48 0.51 0.61 0.92 1.14 0.81 0.88 0.88 0.80 0.76 0.75 0.66 0.63 0.56 0.55 0.64 0.75 0.84 0.91 0.92 0.85 0.87 0.93 1.07 1.10 1.06 1.07 1.07 1.06 1.05 1.08 1.18 1.29 1.39 1.43
0.11 0.15 0.28 0.49 0.49 0.30 0.24 0.20 0.24 0.32 0.41 0.48 0.75 1.05 0.88 0.84 0.89 0.83 0.80 0.79 0.68 0.62 0.58 0.62 0.71 0.73 0.75 0.88 0.99 0.88 0.86 0.92 1.03 1.04 1.05 1.08 1.06 1.01 0.95 0.98 1.06 1.08 1.09 1.13
0.10 0.12 0.24 0.48 0.44 0.34 0.30 0.27 0.28 0.33 0.43 0.46 0.52 0.80 0.93 0.94 0.91 0.87 0.82 0.75 0.72 0.66 0.56 0.59 0.69 0.82 0.80 0.79 0.89 0.85 0.84 0.89 0.98 1.11 1.24 1.21 1.13 1.08 1.03 0.99 1.02 1.04 1.00 1.06
0.10 0.10 0.12 0.17 0.23 0.30 0.32 0.27 0.26 0.27 0.31 0.46 0.44 0.57 0.82 0.91 0.83 0.85 0.85 0.65 0.58 0.66 0.61 0.56 0.64 0.80 0.84 0.84 0.85 0.82 0.86 0.88 0.95 1.14 1.25 1.26 1.23 1.19 1.16 1.09 1.06 1.05 1.09 1.10
0.18 0.17 0.19 0.19 0.26 0.31 0.32 0.28 0.22 0.20 0.20 0.27 0.34 0.54 0.64 0.61 0.68 0.72 0.68 0.64 0.65 0.75 0.70 0.63 0.61 0.65 0.76 0.84 0.90 0.93 0.96 0.94 0.93 0.97 1.05 1.17 1.28 1.29 1.24 1.10 1.06 1.13 1.17 1.15
0.32 0.33 0.29 0.30 0.30 0.36 0.41 0.32 0.26 0.23 0.20 0.26 0.45 0.66 0.65 0.62 0.69 0.64 0.55 0.55 0.66 0.67 0.61 0.60 0.62 0.65 0.71 0.75 0.82 0.98 0.96 0.87 0.88 0.97 1.05 1.17 1.24 1.23 1.18 1.07 1.08 1.12 1.12 1.15
0.31 0.39 0.39 0.40 0.50 0.64 0.43 0.26 0.25 0.28 0.25 0.23 0.34 0.47 0.55 0.52 0.56 0.57 0.52 0.50 0.50 0.51 0.50 0.50 0.58 0.66 0.69 0.66 0.63 0.69 0.77 0.80 0.82 0.91 1.02 1.11 1.17 1.24 1.28 1.24 1.17 1.21 1.22 1.18
0.29 0.43 0.47 0.52 0.66 0.56 0.37 0.32 0.35 0.38 0.41 0.33 0.37 0.44 0.54 0.57 0.57 0.66 0.57 0.52 0.48 0.44 0.45 0.54 0.64 0.64 0.63 0.63 0.60 0.65 0.78 0.86 0.92 0.95 1.05 1.08 1.16 1.32 1.38 1.30 1.27 1.31 1.28 1.20
0.35 0.43 0.58 0.63 0.80 0.75 0.57 0.41 0.37 0.47 0.83 0.58 0.46 0.47 0.57 0.63 0.71 0.80 0.63 0.57 0.52 0.48 0.46 0.48 0.50 0.48 0.52 0.63 0.72 0.81 0.95 1.09 1.11 1.06 1.09 1.17 1.24 1.35 1.45 1.48 1.48 1.44 1.40 1.33
0.73 0.67 0.62 0.72 0.87 0.76 0.56 0.45 0.51 0.88 1.10 0.75 0.63 0.59 0.64 0.74 0.72 0.69 0.63 0.54 0.52 0.53 0.52 0.52 0.55 0.56 0.60 0.65 0.84 1.04 1.11 1.16 1.18 1.16 1.17 1.27 1.36 1.49 1.65 1.80 1.75 1.70 1.65 1.63
0.94 0.97 0.92 0.96 1.12 1.12 0.68 0.57 0.85 1.06 0.86 0.79 0.78 0.75 0.72 0.64 0.58 0.57 0.61 0.56 0.51 0.51 0.57 0.63 0.72 0.75 0.68 0.70 0.83 1.01 1.09 1.14 1.26 1.29 1.34 1.38 1.50 1.54 1.67 2.01 2.00 2.01 2.00 1.87
1.04 1.15 1.24 1.23 1.24 1.01 0.90 0.95 0.98 1.03 0.91 0.85 0.71 0.64 0.61 0.61 0.59 0.63 0.71 0.69 0.58 0.53 0.59 0.64 0.74 0.81 0.85 0.91 1.00 1.16 1.21 1.28 1.36 1.47 1.58 1.63 1.66 1.77 1.86 1.99 2.03 2.07 2.05 1.94
1.02 0.95 1.25 1.40 1.29 1.17 1.04 0.96 1.01 1.16 1.04 0.85 0.70 0.65 0.64 0.63 0.57 0.53 0.57 0.62 0.60 0.57 0.63 0.70 0.75 0.95 1.08 1.12 1.18 1.25 1.33 1.45 1.59 1.73 1.83 1.90 1.91 1.89 1.93 2.07 2.06 2.05 2.06 1.98
0.92 0.95 1.27 1.51 1.46 1.44 1.25 0.97 0.91 0.94 0.88 0.74 0.74 0.71 0.71 0.72 0.64 0.55 0.52 0.54 0.59 0.67 0.74 0.80 0.89 1.03 1.11 1.21 1.32 1.42 1.56 1.73 1.82 1.84 1.86 1.86 1.92 2.05 2.12 2.08 2.05 2.08 2.12 2.08
1.05 1.05 1.33 1.62 1.43 1.40 1.33 1.07 0.92 0.81 0.72 0.68 0.81 0.86 0.76 0.74 0.73 0.67 0.60 0.60 0.63 0.70 0.81 0.91 1.00 1.11 1.19 1.34 1.53 1.64 1.78 1.98 2.14 2.09 2.01 2.00 2.01 2.10 2.14 2.10 2.02 2.03 1.98 1.91

GEFSCGP_prec_meanprecacc_240.txt.gz
Total_Precipitation_Accumulation
0.00 0.00 0.01 0.01 0.04 0.08 0.10 0.12 0.16 0.17 0.19 0.25 0.36 0.58 0.79 0.90 1.09 1.22 1.19 1.33 1.73 2.13 2.44 2.71 2.86 3.09 3.40 3.70 3.95 4.22 4.59 4.68 4.42 4.35 4.29 4.17 3.85 3.71 3.39 2.99 2.64 2.53 2.53 2.68
0.00 0.01 0.01 0.01 0.02 0.05 0.06 0.08 0.15 0.18 0.21 0.28 0.33 0.54 0.75 0.78 0.98 1.12 1.22 1.40 1.57 1.78 2.26 2.53 2.55 2.79 3.02 3.53 4.01 4.33 4.31 4.19 3.91 4.00 4.28 4.51 4.48 3.99 3.41 3.05 2.90 2.54 2.45 2.53
0.01 0.02 0.01 0.01 0.02 0.02 0.07 0.10 0.15 0.18 0.21 0.32 0.41 0.83 0.97 0.87 0.95 1.05 1.14 1.31 1.45 1.63 1.82 2.14 2.17 2.26 2.47 2.96 3.46 3.59 3.44 3.35 3.19 3.26 3.57 3.79 4.02 3.76 3.39 3.08 2.83 2.54 2.43 2.36
0.01 0.02 0.01 0.02 0.02 0.03 0.06 0.06 0.07 0.13 0.25 0.44 0.49 0.95 1.19 1.20 1.25 1.10 1.14 1.20 1.46 1.61 1.66 1.82 1.88 1.93 1.98 2.11 2.35 2.52 2.69 2.76 2.75 2.79 2.98 3.18 3.34 3.27 3.10 2.99 2.75 2.49 2.24 2.14
0.02 0.02 0.02 0.03 0.04 0.03 0.05 0.05 0.06 0.12 0.22 0.44 0.48 0.68 1.15 1.43 1.44 1.19 1.14 1.15 1.29 1.31 1.39 1.53 1.61 1.62 1.68 1.82 2.03 2.24 2.52 2.65 2.70 2.66 2.75 2.96 3.22 3.18 2.93 2.71 2.64 2.47 2.25 2.01
0.03 0.04 0.05 0.04 0.04 0.04 0.05 0.07 0.13 0.20 0.31 0.71 0.61 0.68 1.09 1.31 1.17 1.12 1.04 0.98 1.05 1.04 1.18 1.38 1.49 1.54 1.57 1.65 1.87 2.08 2.30 2.26 2.32 2.40 2.44 2.46 2.55 2.63 2.52 2.38 2.31 2.15 1.98 1.83
0.12 0.11 0.09 0.06 0.06 0.06 0.08 0.14 0.49 0.90 1.08 1.05 0.64 0.73 1.19 1.09 0.92 0.94 0.94 0.96 1.03 1.02 1.01 1.18 1.36 1.36 1.49 1.59 1.69 1.82 1.92 1.97 1.97 2.04 2.00 1.95 2.02 2.17 2.14 2.05 2.04 1.96 1.74 1.59
0.21 0.24 0.16 0.09 0.08 0.09 0.13 0.22 0.64 0.91 0.92 0.91 0.76 1.14 1.35 0.95 0.87 0.84 0.75 0.76 0.79 0.76 0.74 0.84 1.00 1.10 1.23 1.37 1.45 1.54 1.59 1.73 1.86 1.93 1.95 1.89 1.86 1.93 2.01 2.05 1.92 1.83 1.58 1.43
0.14 0.16 0.11 0.08 0.07 0.11 0.21 0.28 0.31 0.51 0.62 0.96 1.15 1.36 1.21 0.92 0.87 0.80 0.82 0.79 0.78 0.72 0.69 0.71 0.80 0.90 0.93 1.04 1.14 1.21 1.34 1.52 1.69 1.70 1.82 1.79 1.67 1.75 1.91 2.00 1.92 1.83 1.77 1.64
0.07 0.09 0.11 0.08 0.10 0.15 0.17 0.21 0.28 0.43 0.66 0.97 1.17 1.46 1.62 1.41 1.20 1.02 1.06 0.95 0.83 0.72 0.66 0.66 0.66 0.68 0.66 0.76 1.00 1.10 1.26 1.42 1.46 1.45 1.43 1.36 1.41 1.57 1.72 1.71 1.65 1.77 1.84 1.85
0.07 0.07 0.10 0.13 0.14 0.16 0.19 0.22 0.29 0.37 0.45 0.75 1.16 1.33 1.12 1.19 1.17 1.15 1.01 0.94 0.89 0.78 0.64 0.62 0.68 0.69 0.68 0.72 0.93 0.97 1.04 1.23 1.28 1.25 1.17 1.15 1.20 1.30 1.39 1.42 1.45 1.60 1.67 1.75
0.08 0.09 0.15 0.20 0.17 0.15 0.18 0.21 0.31 0.48 0.51 0.61 0.92 1.14 0.81 0.88 0.88 0.81 0.76 0.75 0.67 0.64 0.58 0.57 0.66 0.77 0.87 0.94 0.93 0.86 0.87 0.93 1.07 1.11 1.07 1.08 1.09 1.09 1.09 1.12 1.22 1.31 1.40 1.44
0.11 0.15 0.28 0.49 0.49 0.30 0.24 0.20 0.24 0.32 0.41 0.48 0.75 1.05 0.88 0.85 0.89 0.83 0.81 0.80 0.69 0.63 0.60 0.64 0.73 0.75 0.77 0.90 1.01 0.89 0.87 0.93 1.04 1.07 1.09 1.14 1.13 1.07 1.02 1.05 1.10 1.10 1.10 1.14
0.10 0.12 0.24 0.48 0.44 0.34 0.30 0.27 0.28 0.33 0.43 0.46 0.52 0.80 0.93 0.94 0.91 0.87 0.82 0.75 0.73 0.69 0.59 0.63 0.74 0.86 0.84 0.82 0.92 0.87 0.85 0.90 1.01 1.17 1.34 1.34 1.26 1.17 1.09 1.03 1.04 1.05 1.01 1.07
0.10 0.10 0.12 0.18 0.23 0.30 0.32 0.27 0.26 0.27 0.31 0.46 0.44 0.57 0.82 0.91 0.83 0.86 0.86 0.66 0.60 0.69 0.66 0.60 0.69 0.85 0.90 0.89 0.88 0.85 0.89 0.94 1.06 1.29 1.41 1.41 1.36 1.28 1.22 1.13 1.09 1.06 1.10 1.11
0.18 0.17 0.19 0.19 0.26 0.31 0.32 0.28 0.23 0.20 0.20 0.27 0.34 0.54 0.64 0.61 0.68 0.73 0.69 0.65 0.67 0.78 0.74 0.67 0.66 0.70 0.83 0.88 0.92 0.95 1.01 1.08 1.12 1.15 1.20 1.30 1.37 1.38 1.32 1.15 1.09 1.16 1.19 1.18
0.32 0.33 0.29 0.30 0.30 0.36 0.41 0.32 0.26 0.23 0.20 0.26 0.45 0.66 0.65 0.62 0.70 0.64 0.56 0.55 0.68 0.76 0.69 0.64 0.66 0.69 0.75 0.78 0.84 1.01 1.02 0.97 0.98 1.07 1.14 1.24 1.30 1.29 1.23 1.10 1.11 1.14 1.14 1.17
0.31 0.39 0.39 0.40 0.50 0.64 0.43 0.26 0.25 0.28 0.25 0.23 0.34 0.48 0.55 0.53 0.56 0.58 0.52 0.50 0.51 0.55 0.57 0.58 0.63 0.70 0.72 0.68 0.65 0.70 0.79 0.84 0.86 0.94 1.05 1.14 1.20 1.27 1.32 1.27 1.19 1.23 1.24 1.20
0.29 0.43 0.47 0.53 0.67 0.56 0.37 0.33 0.35 0.39 0.42 0.34 0.37 0.44 0.54 0.57 0.58 0.67 0.57 0.52 0.49 0.45 0.47 0.56 0.68 0.68 0.66 0.65 0.62 0.68 0.80 0.89 0.96 0.99 1.08 1.11 1.20 1.35 1.41 1.32 1.29 1.33 1.30 1.22
0.35 0.43 0.58 0.63 0.80 0.75 0.57 0.42 0.37 0.47 0.83 0.58 0.47 0.47 0.57 0.63 0.72 0.81 0.64 0.58 0.53 0.49 0.48 0.49 0.52 0.51 0.55 0.66 0.75 0.84 0.98 1.12 1.15 1.12 1.15 1.23 1.29 1.40 1.48 1.51 1.51 1.46 1.43 1.35
0.73 0.67 0.62 0.72 0.88 0.76 0.56 0.45 0.52 0.89 1.10 0.75 0.63 0.59 0.64 0.74 0.73 0.70 0.64 0.55 0.53 0.55 0.54 0.54 0.58 0.60 0.64 0.69 0.86 1.06 1.13 1.18 1.21 1.21 1.22 1.32 1.41 1.55 1.71 1.85 1.79 1.73 1.68 1.65
0.96 0.98 0.93 0.96 1.13 1.12 0.68 0.57 0.85 1.06 0.86 0.79 0.78 0.76 0.72 0.64 0.58 0.58 0.62 0.58 0.53 0.54 0.61 0.66 0.75 0.78 0.71 0.72 0.86 1.03 1.12 1.17 1.28 1.31 1.37 1.43 1.55 1.61 1.74 2.07 2.05 2.06 2.04 1.91
1.06 1.17 1.26 1.25 1.25 1.02 0.91 0.96 0.99 1.03 0.92 0.86 0.72 0.64 0.61 0.62 0.61 0.65 0.73 0.72 0.62 0.57 0.64 0.69 0.78 0.84 0.87 0.94 1.03 1.19 1.24 1.31 1.39 1.51 1.62 1.68 1.74 1.87 1.96 2.08 2.10 2.13 2.11 2.00
1.03 0.96 1.27 1.42 1.31 1.18 1.05 0.97 1.01 1.16 1.05 0.86 0.71 0.66 0.66 0.66 0.60 0.57 0.61 0.66 0.64 0.62 0.68 0.75 0.79 0.99 1.12 1.16 1.21 1.28 1.36 1.49 1.63 1.77 1.89 1.95 1.97 1.98 2.02 2.15 2.13 2.12 2.12 2.04
0.93 0.96 1.28 1.53 1.49 1.47 1.27 0.99 0.93 0.96 0.89 0.75 0.75 0.73 0.73 0.74 0.68 0.60 0.58 0.59 0.65 0.72 0.79 0.85 0.94 1.08 1.14 1.24 1.35 1.45 1.60 1.77 1.85 1.87 1.91 1.93 1.98 2.10 2.17 2.14 2.12 2.15 2.19 2.16
1.07 1.07 1.35 1.65 1.47 1.45 1.36 1.10 0.95 0.83 0.74 0.70 0.83 0.88 0.79 0.78 0.77 0.71 0.67 0.68 0.71 0.78 0.87 0.95 1.04 1.14 1.21 1.37 1.55 1.67 1.82 2.01 2.16 2.11 2.04 2.06 2.12 2.19 2.20 2.16 2.08 2.11 2.05 1.96

GEFSCGP_prec_meanprecacc_246.txt.gz
Total_Precipitation_Accumulation
0.00 0.00 0.01 0.01 0.04 0.08 0.10 0.12 0.16 0.18 0.19 0.25 0.36 0.58 0.79 0.90 1.09 1.22 1.20 1.33 1.74 2.13 2.44 2.71 2.86 3.09 3.41 3.71 3.96 4.23 4.61 4.71 4.46 4.39 4.33 4.21 3.89 3.74 3.42 3.03 2.67 2.57 2.57 2.73
0.00 0.01 0.01 0.01 0.02 0.05 0.06 0.08 0.15 0.18 0.21 0.28 0.33 0.54 0.75 0.78 0.98 1.12 1.22 1.40 1.57 1.78 2.26 2.53 2.55 2.79 3.03 3.54 4.02 4.34 4.33 4.21 3.94 4.03 4.32 4.54 4.50 4.02 3.43 3.07 2.92 2.57 2.48 2.56
0.01 0.02 0.01 0.01 0.02 0.02 0.07 0.10 0.15 0.18 0.21 0.32 0.41 0.83 0.97 0.87 0.95 1.05 1.14 1.31 1.45 1.63 1.82 2.14 2.17 2.26 2.48 2.97 3.47 3.60 3.45 3.37 3.22 3.28 3.59 3.81 4.04 3.78 3.41 3.10 2.86 2.57 2.45 2.39
0.01 0.02 0.01 0.02 0.02 0.03 0.06 0.06 0.07 0.13 0.25 0.44 0.49 0.95 1.19 1.20 1.25 1.10 1.14 1.20 1.46 1.61 1.66 1.82 1.88 1.93 1.98 2.11 2.36 2.53 2.71 2.78 2.77 2.80 2.98 3.19 3.35 3.28 3.12 3.00 2.76 2.51 2.26 2.17
0.02 0.02 0.02 0.03 0.04 0.03 0.05 0.05 0.06 0.12 0.22 0.44 0.48 0.68 1.15 1.43 1.44 1.19 1.14 1.15 1.29 1.31 1.39 1.53 1.61 1.62 1.68 1.82 2.03 2.24 2.53 2.66 2.71 2.67 2.76 2.97 3.23 3.20 2.94 2.72 2.66 2.49 2.27 2.03
0.03 0.04 0.05 0.04 0.04 0.04 0.05 0.07 0.13 0.20 0.31 0.71 0.61 0.68 1.09 1.31 1.17 1.12 1.04 0.98 1.05 1.04 1.18 1.38 1.49 1.54 1.57 1.65 1.88 2.10 2.31 2.27 2.33 2.41 2.44 2.46 2.56 2.65 2.53 2.40 2.33 2.17 2.00 1.85
0.12 0.11 0.09 0.06 0.06 0.06 0.08 0.14 0.50 0.90 1.08 1.05 0.64 0.73 1.19 1.09 0.92 0.94 0.94 0.96 1.03 1.02 1.01 1.18 1.36 1.37 1.50 1.60 1.71 1.84 1.94 1.97 1.98 2.05 2.00 1.96 2.03 2.19 2.16 2.07 2.06 1.99 1.77 1.61
0.21 0.24 0.16 0.09 0.08 0.09 0.13 0.22 0.64 0.93 0.92 0.91 0.76 1.14 1.35 0.95 0.87 0.84 0.75 0.76 0.79 0.76 0.74 0.84 1.00 1.11 1.24 1.39 1.47 1.56 1.61 1.75 1.86 1.93 1.95 1.91 1.88 1.95 2.03 2.07 1.94 1.87 1.61 1.45
0.14 0.16 0.11 0.08 0.07 0.11 0.21 0.28 0.31 0.52 0.63 0.96 1.15 1.36 1.21 0.92 0.87 0.80 0.82 0.79 0.78 0.72 0.69 0.71 0.80 0.90 0.95 1.05 1.15 1.23 1.35 1.53 1.70 1.70 1.83 1.81 1.68 1.76 1.93 2.01 1.94 1.86 1.80 1.67
0.07 0.09 0.11 0.08 0.10 0.15 0.17 0.21 0.29 0.43 0.66 0.97 1.17 1.46 1.62 1.42 1.20 1.02 1.06 0.95 0.83 0.72 0.66 0.66 0.66 0.68 0.66 0.76 1.00 1.11 1.26 1.43 1.48 1.46 1.43 1.36 1.41 1.58 1.73 1.73 1.66 1.79 1.86 1.87
0.07 0.07 0.10 0.13 0.14 0.16 0.19 0.22 0.29 0.37 0.45 0.75 1.16 1.33 1.12 1.19 1.17 1.15 1.01 0.94 0.89 0.78 0.64 0.62 0.68 0.70 0.68 0.72 0.94 0.97 1.04 1.24 1.29 1.26 1.17 1.15 1.21 1.31 1.40 1.43 1.45 1.61 1.69 1.77
0.08 0.09 0.15 0.20 0.17 0.15 0.18 0.21 0.31 0.48 0.51 0.61 0.92 1.14 0.81 0.88 0.88 0.81 0.76 0.75 0.67 0.64 0.58 0.57 0.66 0.77 0.87 0.94 0.93 0.86 0.87 0.93 1.07 1.11 1.08 1.09 1.11 1.10 1.10 1.13 1.24 1.35 1.43 1.47
0.11 0.15 0.28 0.49 0.49 0.30 0.24 0.20 0.24 0.32 0.41 0.48 0.75 1.05 0.88 0.85 0.89 0.83 0.81 0.80 0.69 0.63 0.60 0.64 0.73 0.75 0.77 0.90 1.01 0.89 0.87 0.93 1.04 1.07 1.10 1.16 1.15 1.09 1.03 1.06 1.12 1.14 1.12 1.16
0.10 0.12 0.24 0.48 0.44 0.34 0.30 0.27 0.28 0.33 0.43 0.46 0.52 0.80 0.93 0.94 0.91 0.87 0.83 0.75 0.74 0.69 0.60 0.63 0.74 0.86 0.84 0.82 0.93 0.87 0.85 0.90 1.01 1.17 1.36 1.36 1.27 1.18 1.10 1.04 1.06 1.07 1.03 1.09
0.11 0.10 0.12 0.18 0.23 0.30 0.32 0.27 0.26 0.27 0.31 0.46 0.44 0.57 0.82 0.91 0.83 0.86 0.86 0.66 0.60 0.69 0.66 0.60 0.69 0.85 0.91 0.90 0.89 0.85 0.89 0.94 1.06 1.30 1.42 1.42 1.37 1.28 1.22 1.14 1.11 1.08 1.12 1.13
0.19 0.18 0.19 0.19 0.26 0.31 0.32 0.28 0.23 0.20 0.20 0.27 0.34 0.54 0.64 0.61 0.68 0.73 0.69 0.65 0.67 0.78 0.74 0.67 0.67 0.71 0.84 0.90 0.93 0.96 1.02 1.08 1.13 1.16 1.22 1.31 1.38 1.38 1.32 1.16 1.10 1.17 1.20 1.19
0.33 0.33 0.30 0.30 0.30 0.36 0.41 0.32 0.26 0.23 0.20 0.26 0.45 0.66 0.65 0.62 0.70 0.64 0.56 0.55 0.68 0.76 0.69 0.64 0.67 0.70 0.77 0.79 0.85 1.02 1.04 0.99 0.99 1.08 1.16 1.25 1.31 1.29 1.23 1.11 1.11 1.15 1.15 1.18
0.31 0.40 0.39 0.40 0.51 0.64 0.43 0.26 0.25 0.28 0.25 0.23 0.34 0.48 0.55 0.53 0.56 0.58 0.52 0.50 0.51 0.55 0.57 0.58 0.64 0.71 0.74 0.70 0.66 0.72 0.81 0.87 0.90 0.97 1.07 1.15 1.21 1.28 1.32 1.28 1.20 1.24 1.26 1.22
0.29 0.43 0.48 0.53 0.67 0.56 0.37 0.33 0.35 0.39 0.42 0.34 0.38 0.44 0.54 0.57 0.59 0.67 0.57 0.52 0.49 0.45 0.48 0.59 0.71 0.70 0.69 0.67 0.64 0.70 0.84 0.94 1.01 1.03 1.10 1.13 1.21 1.36 1.42 1.33 1.30 1.35 1.32 1.24
0.35 0.43 0.59 0.64 0.81 0.76 0.57 0.42 0.38 0.48 0.84 0.59 0.47 0.47 0.57 0.63 0.73 0.81 0.64 0.58 0.54 0.50 0.49 0.54 0.57 0.55 0.59 0.69 0.77 0.86 1.01 1.16 1.19 1.14 1.17 1.25 1.32 1.43 1.53 1.56 1.55 1.49 1.45 1.37
0.74 0.68 0.63 0.73 0.88 0.76 0.56 0.46 0.52 0.90 1.10 0.75 0.63 0.59 0.64 0.74 0.73 0.70 0.64 0.56 0.54 0.56 0.57 0.58 0.62 0.64 0.67 0.71 0.89 1.08 1.16 1.21 1.23 1.23 1.24 1.34 1.43 1.57 1.74 1.90 1.84 1.78 1.71 1.68
0.96 0.99 0.93 0.97 1.13 1.12 0.69 0.58 0.86 1.07 0.86 0.80 0.79 0.76 0.72 0.65 0.59 0.58 0.62 0.59 0.55 0.57 0.65 0.71 0.80 0.83 0.75 0.75 0.89 1.07 1.16 1.20 1.31 1.33 1.39 1.44 1.56 1.62 1.77 2.11 2.12 2.13 2.11 1.96
1.07 1.18 1.27 1.27 1.26 1.02 0.91 0.96 0.99 1.03 0.92 0.86 0.72 0.64 0.62 0.62 0.62 0.66 0.75 0.75 0.66 0.60 0.67 0.73 0.83 0.90 0.91 0.97 1.07 1.23 1.29 1.35 1.42 1.54 1.64 1.70 1.76 1.88 1.98 2.11 2.15 2.18 2.17 2.06
1.04 0.97 1.27 1.42 1.32 1.19 1.06 0.97 1.02 1.17 1.05 0.86 0.72 0.67 0.67 0.67 0.61 0.59 0.64 0.69 0.68 0.66 0.72 0.78 0.83 1.03 1.16 1.20 1.25 1.33 1.41 1.54 1.69 1.83 1.92 1.97 1.98 1.99 2.04 2.18 2.16 2.16 2.16 2.08
0.94 0.97 1.29 1.53 1.49 1.48 1.28 1.00 0.93 0.96 0.89 0.76 0.75 0.73 0.73 0.76 0.70 0.62 0.60 0.62 0.68 0.77 0.84 0.90 1.00 1.13 1.19 1.28 1.38 1.47 1.63 1.80 1.89 1.92 1.95 1.95 1.99 2.11 2.19 2.17 2.15 2.19 2.24 2.20
1.09 1.08 1.36 1.66 1.49 1.47 1.37 1.10 0.96 0.84 0.75 0.71 0.84 0.88 0.80 0.79 0.79 0.73 0.69 0.71 0.76 0.83 0.94 1.03 1.11 1.20 1.25 1.40 1.58 1.70 1.84 2.03 2.19 2.14 2.08 2.10 2.15 2.21 2.22 2.19 2.11 2.15 2.09 2.01